Location: Unspecified
(51.6250°N, 0.8230°E)
Time: 03:50:18
(UTC+00:00)

Intercosmos 25 - Pass Details

Date: 27 January 2021
Orbit: 438 x 2877 km, 82.6° (Epoch: 07 March)

Event Time Altitude Azimuth Distance (km) Brightness Sun altitude
Rises 17:39:37 0° 238° (WSW) 6,026 10.4 -9.7°
Reaches altitude 10° 17:44:56 10° 251° (WSW) 4,620 9.6 -10.5°
Maximum altitude 17:53:19 23° 299° (WNW) 2,937 7.6 -11.8°
Drops below altitude 10° 17:59:21 10° 349° (N) 3,185 7.2 -12.7°
Sets 18:02:16 0° 5° (N) 3,814 7.4 -13.1°
